[[{"header":{"parameterUnit":"m.s-1","parameterCategory":1,"la1":30.2991,"la2":30.254,"lo1":-89.0895,"lo2":-89.0444,"dy":0.0017,"dx":0.0017,"nx":28,"ny":28,"refTime":"2025-12-15T03:00:00:Z","depth":0,"parameterNumber":2,"parameterNumberName":"U-component_of_WINDS"},"data":[0,0,0,0,0,0,0,0,0,0,0,0,0,0,0,0,0,0,0,0,0,0,0,0,0,0,0,0,0,0,0,0,0,0,0,0,0,0,0,0,0,0,0,0,0,0,0,0,0,0,0,0,0,0,0,0,0,0,-2.5099,-2.51,0,-2.5197,-2.5198,-2.5199,-2.515,-2.5147,-2.5145,-2.5142,-2.524,-2.5245,-2.525,0,0,0,0,0,0,0,0,0,0,0,0,0,-2.4868,-2.4872,-2.5099,-2.51,-2.5101,-2.5196,-2.5198,-2.5199,-2.515,-2.5147,-2.5144,-2.5141,-2.5238,-2.5244,-2.525,0,0,0,0,0,0,0,0,0,0,0,0,0,-2.4967,-2.4874,-2.5099,-2.5088,-2.5089,-2.5196,-2.5198,-2.5199,-2.5151,-2.5147,-2.5143,-2.514,-2.5236,-2.5244,-2.5251,-2.5374,0,0,-2.5274,-2.5277,0,0,0,0,0,0,0,0,-2.4961,-2.4975,-2.5089,-2.5089,-2.509,-2.5157,-2.5152,-2.5258,-2.5152,-2.5127,-2.5142,-2.5138,-2.5215,-2.5224,-2.5251,-2.5378,-2.5383,-2.5275,-2.5279,-2.5282,-2.5284,0,0,0,0,0,0,0,-2.4954,-2.4971,-2.5137,-2.509,-2.5091,-2.5078,-2.5088,-2.5172,-2.5191,-2.5129,-2.5126,-2.5138,-2.5215,-2.5244,-2.5253,-2.5384,-2.5274,-2.5281,-2.5286,-2.5289,-2.5615,-2.5619,0,0,0,0,0,0,-2.4948,-2.4965,-2.5134,-2.514,-2.5015,-2.5085,-2.5096,-2.5139,-2.519,-2.5195,-2.5141,-2.5135,-2.5233,-2.5244,-2.5256,-2.5401,-2.5282,-2.5289,-2.5294,-2.5611,-2.5616,-2.562,0,0,0,0,0,0,-2.4944,-2.4964,-2.513,-2.5052,-2.5072,-2.5093,-2.5142,-2.5143,-2.5172,-2.52,-2.5203,-2.5167,-2.523,-2.5246,-2.5345,-2.5404,-2.5293,-2.5299,-2.5606,-2.5612,-2.5618,-2.5694,0,0,0,0,0,0,-2.4937,-2.4963,-2.501,-2.5054,-2.5077,-2.5218,-2.5146,-2.5148,-2.5185,-2.5179,-2.5225,-2.5229,-2.5229,-2.5334,-2.5352,-2.5412,-2.5305,-2.56,-2.5609,-2.5616,-2.5686,-2.5702,-2.5716,0,0,0,0,0,-2.4929,-2.5028,-2.5013,-2.5033,-2.5137,-2.5222,-2.5235,-2.5233,-2.519,-2.5238,-2.5255,-2.5227,-2.5395,-2.5344,-2.5364,-2.5428,-2.5597,-2.5606,-2.5615,-2.568,-2.5699,-2.5715,0,0,0,0,0,0,-2.499,-2.5033,-2.5017,-2.5133,-2.5174,-2.5213,-2.5273,-2.5254,-2.5308,-2.5299,-2.5294,-2.5305,-2.5407,-2.5428,-2.537,-2.5548,-2.5489,-2.5503,-2.5531,-2.555,-2.5564,-2.5556,-2.5312,0,0,0,0,0,-2.5017,-2.5083,-2.5117,-2.5216,-2.5237,-2.5252,-2.5289,-2.5284,-2.5326,-2.5343,-2.5368,-2.5409,-2.5471,-2.5512,-2.557,-2.569,-2.5698,-2.5743,-2.5758,-2.577,-2.5781,-2.5844,-2.5864,-2.5651,-2.5651,-2.5651,0,0,-2.5073,-2.5105,-2.5147,-2.5229,-2.526,-2.5328,-2.5267,-2.5341,-2.5391,-2.5354,-2.5449,-2.5469,-2.5514,-2.5623,-2.5673,-2.5644,-2.5842,-2.5782,-2.5791,-2.5796,-2.5856,-2.5876,-2.5894,-2.5657,-2.5656,-2.5655,0,0,-2.5209,-2.5241,-2.5326,-2.5359,-2.5407,-2.5416,-2.5436,-2.5479,-2.549,-2.5585,-2.5559,-2.5618,-2.5725,-2.5758,-2.5789,-2.5937,-2.5913,-2.5957,-2.6033,-2.6094,-2.6111,-2.6125,-2.6176,-2.6195,-2.5968,-2.5969,-2.5969,0,-2.5273,-2.5374,-2.5372,-2.5448,-2.5484,-2.5455,-2.5539,-2.5571,-2.5636,-2.5661,-2.5628,-2.5761,-2.579,-2.5905,-2.5942,-2.5968,-2.599,-2.595,-2.6109,-2.6123,-2.6137,-2.6186,-2.6205,-2.5973,-2.5973,-2.5972,-2.5972,0,-2.5449,-2.552,-2.5582,-2.5646,-2.5689,-2.5769,-2.5778,-2.5822,-2.5813,-2.5825,-2.5921,-2.5955,-2.6019,-2.6047,-2.6039,-2.6161,-2.6141,-2.6109,-2.6049,-2.6162,-2.6207,-2.6226,-2.598,-2.5978,-2.5977,-2.5976,0,0,-2.5625,-2.5686,-2.5709,-2.5737,-2.5788,-2.5842,-2.592,-2.5984,-2.602,-2.6066,-2.6131,-2.6222,-2.6192,-2.6227,-2.6223,-2.6277,-2.639,-2.6237,-2.6238,-2.6263,-2.6524,-2.6546,-2.6568,-2.6375,-2.6379,-2.6381,-2.6519,0,-2.5764,-2.5901,-2.5901,-2.6028,-2.6092,-2.6065,-2.6133,-2.6171,-2.6184,-2.624,-2.6254,-2.6318,-2.6275,-2.6296,-2.6348,-2.6365,-2.6442,-2.6355,-2.6433,-2.6436,-2.642,-2.6592,-2.6617,-2.6745,-2.6537,-2.654,-2.6542,0,-2.5943,-2.5995,-2.6128,-2.6168,-2.6195,-2.6256,-2.6313,-2.6368,-2.641,-2.6416,-2.6455,-2.6442,-2.6521,-2.646,-2.6567,-2.6508,-2.654,-2.6553,-2.6558,-2.6563,-2.6495,-2.66,-2.6786,-2.6805,-2.6571,-2.6569,-2.6567,0,-2.6056,-2.6159,-2.6251,-2.6276,-2.6326,-2.637,-2.6392,-2.6431,-2.6468,-2.6518,-2.6542,-2.6601,-2.6632,-2.6677,-2.668,-2.6636,-2.6787,-2.6727,-2.6793,-2.6793,-2.6824,-2.6822,-2.7016,-2.6849,-2.6848,-2.6848,-2.6848,0,-2.6209,-2.6291,-2.6302,-2.6359,-2.6449,-2.6448,-2.6538,-2.6556,-2.6591,-2.665,-2.663,-2.6686,-2.6687,-2.6744,-2.6747,-2.6834,-2.6849,-2.6855,-2.6854,-2.6855,-2.6854,-2.6875,-2.6865,-2.6853,-2.6852,-2.6851,-2.685,0,-2.635,-2.6361,-2.6459,-2.6499,-2.651,-2.6575,-2.6608,-2.6662,-2.6673,-2.6748,-2.6765,-2.6783,-2.6849,-2.6857,-2.6933,-2.6935,-2.7039,-2.7031,-2.7025,-2.7023,-2.7087,-2.7081,-2.73,-2.7327,-2.7144,-2.7146,-2.7147,0,-2.6446,-2.6508,-2.6554,-2.6592,-2.6617,-2.6679,-2.6717,-2.6718,-2.6759,-2.6811,-2.6858,-2.6921,-2.6972,-2.7078,-2.7097,-2.7155,-2.7146,-2.7219,-2.7154,-2.7153,-2.7145,-2.714,-2.7145,-2.7231,-2.7233,-2.7234,-2.7236,0,-2.6614,-2.6617,-2.6672,-2.673,-2.6776,-2.6822,-2.6865,-2.6897,-2.6903,-2.6949,-2.7016,-2.7055,-2.7133,-2.7196,-2.7253,-2.7275,-2.7256,-2.7256,-2.7274,-2.7275,-2.7268,-2.727,-2.7057,-2.7251,-2.7249,-2.7248,-2.7247,-2.7247,-2.6734,-2.6788,-2.6828,-2.689,-2.6923,-2.6963,-2.7014,-2.7032,-2.7088,-2.7152,-2.7149,-2.7222,-2.7262,-2.7336,-2.7363,-2.7419,-2.7395,-2.7422,-2.7428,-2.7434,-2.7439,-2.7261,-2.743,-2.743,-2.7429,-2.7429,-2.7429,0,-2.69,-2.6924,-2.6982,-2.7042,-2.7091,-2.707,-2.7116,-2.7158,-2.7222,-2.7261,-2.7311,-2.7387,-2.7448,-2.7472,-2.7531,-2.7572,-2.7565,-2.7587,-2.7583,-2.7588,-2.7459,-2.7436,-2.7592,-2.7592,-2.7592,-2.7592,-2.7592,-2.7592,-2.6992,-2.708,-2.7087,-2.7191,-2.7215,-2.7287,-2.7314,-2.7351,-2.7381,-2.7467,-2.7518,-2.7533,-2.7566,-2.7627,-2.7681,-2.7687,-2.7708,-2.7735,-2.7736,-2.7614,-2.7598,-2.7582,-2.756,-2.774,-2.774,-2.786,-2.7862,-2.7862]},{"header":{"parameterUnit":"m.s-1","parameterCategory":1,"la1":30.2991,"la2":30.254,"lo1":-89.0895,"lo2":-89.0444,"dy":0.0017,"dx":0.0017,"nx":28,"ny":28,"refTime":"2025-12-15T03:00:00:Z","depth":0,"parameterNumber":3,"parameterNumberName":"V-component_of_WINDS"},"data":[0,0,0,0,0,0,0,0,0,0,0,0,0,0,0,0,0,0,0,0,0,0,0,0,0,0,0,0,0,0,0,0,0,0,0,0,0,0,0,0,0,0,0,0,0,0,0,0,0,0,0,0,0,0,0,0,0,0,-0.8196,-0.8197,0,-0.8242,-0.8243,-0.8243,-0.8276,-0.8276,-0.8276,-0.8277,-0.8326,-0.8327,-0.8328,0,0,0,0,0,0,0,0,0,0,0,0,0,-0.8137,-0.8138,-0.8196,-0.8197,-0.8197,-0.8242,-0.8243,-0.8243,-0.8276,-0.8276,-0.8276,-0.8277,-0.8325,-0.8326,-0.8328,0,0,0,0,0,0,0,0,0,0,0,0,0,-0.8171,-0.8139,-0.8196,-0.8219,-0.8221,-0.8242,-0.8243,-0.8244,-0.8276,-0.8276,-0.8277,-0.8277,-0.8325,-0.8326,-0.8328,-0.833,0,0,-0.8333,-0.8333,0,0,0,0,0,0,0,0,-0.8169,-0.8173,-0.8215,-0.8217,-0.822,-0.8254,-0.824,-0.8273,-0.8276,-0.8255,-0.8277,-0.8277,-0.8301,-0.8305,-0.8313,-0.8332,-0.8335,-0.8333,-0.8334,-0.8335,-0.8335,0,0,0,0,0,0,0,-0.8167,-0.8171,-0.8214,-0.8215,-0.8219,-0.8227,-0.8232,-0.8246,-0.8276,-0.8257,-0.8259,-0.8264,-0.8303,-0.8311,-0.8314,-0.8335,-0.8333,-0.8334,-0.8335,-0.8336,-0.8358,-0.8358,0,0,0,0,0,0,-0.8161,-0.8169,-0.8213,-0.8216,-0.8195,-0.8228,-0.8234,-0.8243,-0.8276,-0.8281,-0.8264,-0.8266,-0.8308,-0.8312,-0.8316,-0.832,-0.8335,-0.8336,-0.8337,-0.8359,-0.8358,-0.8358,0,0,0,0,0,0,-0.8159,-0.8164,-0.8211,-0.8193,-0.82,-0.8228,-0.8238,-0.8243,-0.8252,-0.8281,-0.8286,-0.8267,-0.8309,-0.8314,-0.8326,-0.8323,-0.8337,-0.8338,-0.8359,-0.8359,-0.8358,-0.8329,0,0,0,0,0,0,-0.8157,-0.8164,-0.8164,-0.8193,-0.8201,-0.822,-0.8238,-0.8244,-0.8254,-0.8257,-0.8285,-0.829,-0.8309,-0.8324,-0.8328,-0.8325,-0.8339,-0.836,-0.8359,-0.8358,-0.833,-0.8328,-0.8325,0,0,0,0,0,-0.8155,-0.8155,-0.8164,-0.8169,-0.8202,-0.822,-0.8224,-0.8246,-0.8254,-0.8255,-0.8274,-0.8289,-0.8322,-0.8325,-0.833,-0.8327,-0.836,-0.8359,-0.8358,-0.8332,-0.8328,-0.8325,0,0,0,0,0,0,-0.8126,-0.8159,-0.817,-0.8179,-0.8196,-0.8225,-0.8227,-0.8241,-0.8257,-0.8259,-0.8286,-0.8292,-0.8302,-0.8316,-0.8318,-0.8331,-0.8343,-0.8343,-0.8321,-0.8318,-0.8315,-0.8312,-0.8341,0,0,0,0,0,-0.8121,-0.8131,-0.816,-0.8165,-0.8173,-0.8198,-0.8207,-0.8222,-0.8241,-0.8249,-0.8269,-0.8287,-0.8302,-0.8311,-0.8326,-0.8333,-0.8339,-0.8334,-0.8331,-0.8329,-0.8328,-0.8333,-0.833,-0.8355,-0.8355,-0.8355,0,0,-0.811,-0.8129,-0.8134,-0.816,-0.8175,-0.8186,-0.8205,-0.8216,-0.8224,-0.8251,-0.8263,-0.8278,-0.8301,-0.831,-0.8315,-0.8322,-0.8323,-0.8328,-0.8325,-0.8327,-0.8331,-0.8329,-0.8327,-0.8355,-0.8355,-0.8355,0,0,-0.8095,-0.8111,-0.8116,-0.8131,-0.8153,-0.817,-0.8171,-0.8198,-0.8209,-0.8222,-0.8242,-0.8253,-0.8277,-0.8292,-0.8303,-0.8293,-0.8308,-0.8297,-0.8283,-0.8287,-0.8285,-0.8283,-0.8279,-0.8277,-0.8297,-0.8297,-0.8297,0,-0.8078,-0.8095,-0.8117,-0.8127,-0.8137,-0.8161,-0.8167,-0.8181,-0.8207,-0.8214,-0.8221,-0.8252,-0.8269,-0.8281,-0.8279,-0.8287,-0.8289,-0.8294,-0.8283,-0.8282,-0.8281,-0.8277,-0.8275,-0.8295,-0.8295,-0.8295,-0.8296,0,-0.8073,-0.8085,-0.8087,-0.811,-0.8121,-0.8129,-0.8152,-0.8161,-0.8175,-0.8191,-0.8203,-0.8224,-0.8244,-0.8248,-0.8262,-0.8263,-0.8266,-0.8278,-0.8291,-0.8276,-0.8273,-0.8272,-0.8293,-0.8293,-0.8294,-0.8294,0,0,-0.8042,-0.8077,-0.8078,-0.8088,-0.8114,-0.8124,-0.8133,-0.8151,-0.8157,-0.8174,-0.8182,-0.8202,-0.8213,-0.8225,-0.8241,-0.8244,-0.8234,-0.8256,-0.8257,-0.8251,-0.8236,-0.8226,-0.8224,-0.8244,-0.8244,-0.8244,-0.8234,0,-0.8031,-0.8047,-0.8067,-0.8076,-0.8087,-0.8109,-0.8117,-0.8134,-0.8149,-0.8161,-0.8178,-0.8191,-0.8205,-0.8212,-0.8216,-0.8235,-0.8232,-0.8236,-0.8252,-0.8252,-0.8245,-0.8223,-0.8214,-0.8203,-0.8233,-0.8233,-0.8233,0,-0.802,-0.8035,-0.8045,-0.8069,-0.8075,-0.8081,-0.8099,-0.8109,-0.8129,-0.814,-0.8153,-0.817,-0.8181,-0.8192,-0.8207,-0.8209,-0.8217,-0.8227,-0.8227,-0.8229,-0.8241,-0.8224,-0.82,-0.8198,-0.8231,-0.8231,-0.8231,0,-0.7995,-0.8018,-0.8027,-0.8035,-0.8064,-0.8068,-0.808,-0.8101,-0.811,-0.8126,-0.8132,-0.8149,-0.8159,-0.8172,-0.8193,-0.8199,-0.8205,-0.8219,-0.8215,-0.8214,-0.8215,-0.8214,-0.819,-0.822,-0.822,-0.822,-0.822,0,-0.798,-0.7985,-0.8016,-0.8021,-0.8027,-0.8051,-0.8056,-0.8071,-0.8089,-0.8097,-0.8119,-0.8127,-0.8154,-0.8166,-0.8182,-0.8192,-0.8196,-0.8205,-0.8209,-0.8203,-0.8202,-0.8208,-0.8209,-0.822,-0.822,-0.822,-0.822,0,-0.7953,-0.7974,-0.7985,-0.8011,-0.8018,-0.8021,-0.8044,-0.805,-0.8066,-0.8077,-0.8081,-0.8107,-0.8121,-0.8143,-0.8165,-0.8176,-0.8182,-0.819,-0.8175,-0.8178,-0.8172,-0.8172,-0.8152,-0.815,-0.8181,-0.8181,-0.818,0,-0.7942,-0.7946,-0.7973,-0.798,-0.7991,-0.8002,-0.8012,-0.8035,-0.8044,-0.8066,-0.807,-0.8085,-0.8099,-0.8121,-0.8142,-0.8158,-0.8166,-0.8157,-0.8168,-0.8161,-0.8165,-0.8164,-0.8165,-0.8155,-0.8154,-0.8154,-0.8154,0,-0.792,-0.793,-0.7942,-0.7958,-0.7968,-0.7982,-0.7997,-0.8002,-0.8028,-0.8037,-0.8052,-0.8062,-0.8083,-0.8099,-0.8117,-0.8131,-0.8147,-0.815,-0.815,-0.8143,-0.8134,-0.8138,-0.8168,-0.815,-0.8151,-0.8151,-0.8151,-0.8151,-0.79,-0.7905,-0.7924,-0.7937,-0.795,-0.7963,-0.797,-0.7987,-0.7999,-0.8018,-0.8031,-0.8044,-0.8064,-0.8091,-0.8103,-0.8114,-0.8121,-0.8121,-0.8121,-0.812,-0.8117,-0.8132,-0.8118,-0.8118,-0.8118,-0.8118,-0.8118,0,-0.7879,-0.7892,-0.7904,-0.7923,-0.7933,-0.7947,-0.7964,-0.7971,-0.7983,-0.7999,-0.8012,-0.8028,-0.8043,-0.8065,-0.8081,-0.8086,-0.8093,-0.8089,-0.8089,-0.8092,-0.8111,-0.8109,-0.8083,-0.8083,-0.8083,-0.8083,-0.8083,-0.8083,-0.7869,-0.7877,-0.7889,-0.7904,-0.7917,-0.793,-0.7938,-0.7951,-0.7964,-0.7981,-0.7993,-0.8007,-0.8025,-0.8043,-0.8058,-0.8064,-0.8069,-0.8062,-0.807,-0.8087,-0.8091,-0.8094,-0.8092,-0.8063,-0.8063,-0.8051,-0.805,-0.805]}]]